Regional Weather Roundup
Issued by NWS Charleston, WV

Home | Current Version | Previous Version | Graphics & Text | Print | Product List | Glossary On
Versions: 1 2 3 4 5 6 7 8 9 10 11 12 13 14 15 16 17 18 19 20 21 22 23 24 25 26 27 28 29 30 31 32 33 34 35 36 37 38 39 40 41 42 43 44 45 46 47 48 49 50
790
ASUS41 KRLX 201710
RWRRLX
West Virginia Regional Weather Roundup
National Weather Service Charleston WV
100 PM EDT FRI APR 20 2018

Note: "fair" indicates few or no clouds below 12,000 feet with no
significant weather and/or obstructions to visibility.

WVZ003-201800-
Northern Panhandle of West Virginia

CITY           SKY/WX    TMP DP  RH WIND       PRES   REMARKS
WHEELING       FAIR      50  24  36 W12       30.41S
$$

WVZ009-201800-
Northwest West Virginia

CITY           SKY/WX    TMP DP  RH WIND       PRES   REMARKS
PARKERSBURG    FAIR      51  21  30 NW8       30.47F
$$

WVZ006-201800-
Western West Virginia

CITY           SKY/WX    TMP DP  RH WIND       PRES   REMARKS
HUNTINGTON     FAIR      54  21  27 E9        30.45F
$$

WVZ015-201800-
West Central West Virginia

CITY           SKY/WX    TMP DP  RH WIND       PRES   REMARKS
CHARLESTON     FAIR      52  17  25 N9G18     30.43F
$$

WVZ022-031-201800-
North Central West Virginia

CITY           SKY/WX    TMP DP  RH WIND       PRES   REMARKS
CLARKSBURG     FAIR      51  23  33 VRB6G17   30.40F
MORGANTOWN     FAIR      49  23  36 VRB7      30.40F
$$

WVZ025-035-042-045-201800-
Southern West Virginia

CITY           SKY/WX    TMP DP  RH WIND       PRES   REMARKS
BECKLEY        FAIR      46  18  32 N14G21    30.38F
LOGAN          FAIR      50  16  25 NE7       30.41F
BLUEFIELD      FAIR      45  13  27 VRB6      30.37F
LEWISBURG      FAIR      48  17  28 N9G17     30.36F
$$

WVZ047-201800-
Northern Mountains of West Virginia

CITY           SKY/WX    TMP DP  RH WIND       PRES   REMARKS
ELKINS         FAIR      46  20  35 NW8G22    30.38S
$$

WVZ052-201800-
Eastern Panhandle of West Virginia

CITY           SKY/WX    TMP DP  RH WIND       PRES   REMARKS
MARTINSBURG    FAIR      54  21  27 NW21G26   30.29F
PETERSBURG     FAIR      51  24  35 NW9       30.34F
$$




USA.gov is the U.S. government's official web portal to all federal, state and local government web resources and services.